www.pogodaiklimat.ru

Погода и климат >> Архив погоды >> Россия >> Чукотка >> Бухта Амбарчик


ПОГОДА в Бухте Амбарчик

  • Прогноз погоды в Бухте Амбарчик
  • Монитор погоды в Бухте Амбарчик
  • Климат города

АРХИВ ПОГОДЫ в Бухте Амбарчик

Время (UTC), дата Ветер
(напр.,м/с)
 
Видим.   Явления Облачность Т
(С)
Тd
(С)
f
(%)
Тe
(С)
Тes
(С)
Комфортность P
(гПа)
Po
(гПа)
Тmin
(С)
Tmax
(С)
R
(мм)
R24
(мм)
S
(см)
18 11.12 ЮЗ 11-13
{13}
4000 м позёмок {метель} 9/4 300 м
[Sc Ci fib]
-29.5 -32.8 73 -47 -47 опасность
обморожения
1018.7 1015.4
21 11.12 ЮЗ 9-11
{13}
20 км позёмок {метель} 9/0
[Ci fib]
-30.6 -34.2 71 -47 -47 опасность
обморожения
1018.9 1015.6 -30.6 10
00 12.12 ЮЗ 8
{12}
20 км позёмок {метель} 9/0
[Ci fib]
-32.0 -35.7 70 -48 -48 опасность
обморожения
1019.4 1016.1 -32.0
03 12.12 ЮЗ 10-12
{12}
20 км позёмок {метель} 4/0
[Ci fib]
-31.7 -35.4 70 -49 -49 опасность
обморожения
1018.2 1014.9
06 12.12 ЮЗ 12-14
{14}
4000 м метель 4/0
[Ci fib]
-30.3 -33.7 72 -48 -48 опасность
обморожения
1018.4 1015.1
09 12.12 ЮЗ 8
{14}
4000 м позёмок {метель} 3/0
[Ci fib]
-30.4 -33.8 72 -46 -46 опасность
обморожения
1018.6 1015.3 -30.0
12 12.12 З 6
{11}
20 км позёмок {метель} 3/0
[Ci fib]
-30.1 -33.5 72 -44 -44 опасность
обморожения
1018.5 1015.2
15 12.12 З 6
{9}
20 км позёмок {метель} 3/0
[Ci fib]
-30.7 -34.2 71 -45 -45 опасность
обморожения
1018.0 1014.7
18 12.12 ЮЗ 1
{7}
20 км {метель} 3/0
[Ci fib]
-29.7 -33.1 72 -34 -34 опасность
обморожения
1017.6 1014.3
21 12.12 штиль 0
{3}
20 км 4/0
[Ci fib]
-29.4 -32.9 72 -29 -29 1017.5 1014.2 -31.6 10
00 13.12 З 1
{3}
20 км 8/0
[Ci fib]
-30.3 -33.7 72 -34 -34 опасность
обморожения
1017.2 1013.9
03 13.12 З 1
{2}
20 км 6/0
[Ci fib]
-31.5 -35.0 71 -36 -36 опасность
обморожения
1016.7 1013.4
06 13.12 штиль 0
{3}
20 км 8/0
[Ci fib]
-30.8 -34.3 71 -31 -31 опасность
обморожения
1016.7 1013.4
09 13.12 З 3
{4}
20 км 6/0
[Ci fib]
-31.9 -35.6 70 -42 -42 опасность
обморожения
1016.4 1013.1 -28.6
12 13.12 З 6
{9}
20 км позёмок {метель} 8/0
[Ci fib]
-31.6 -35.3 70 -46 -46 опасность
обморожения
1016.4 1013.1
15 13.12 ЮЗ 10-10
{11}
20 км позёмок {метель} 9/0
[Ci fib]
-30.5 -34.0 71 -48 -48 опасность
обморожения
1015.5 1012.2
18 13.12 З 8
{11}
20 км позёмок {метель} 8/0
[Ci fib]
-31.2 -34.7 71 -47 -47 опасность
обморожения
1015.9 1012.6
21 13.12 З 1
{8}
20 км {метель} 4/0
[Ci fib]
-32.9 -36.6 69 -37 -37 опасность
обморожения
1016.2 1012.9 -32.9 10
00 14.12 ЮЗ 3
{4}
20 км {метель} 6/0
[Ci fib]
-33.5 -37.4 68 -44 -44 опасность
обморожения
1015.7 1012.4 -33.8
03 14.12 З 1
{7}
20 км 6/0
[Ci fib]
-32.3 -36.0 69 -37 -37 опасность
обморожения
1015.3 1012.0
06 14.12 З 2
{3}
20 км 4/0
[Ci fib]
-34.7 -38.7 67 -43 -43 опасность
обморожения
1015.0 1011.6
09 14.12 З 3
{3}
20 км 3/0
[Ci fib]
-34.8 -38.8 67 -45 -45 опасность
обморожения
1014.8 1011.4 -31.8
12 14.12 ЮВ 1
{3}
20 км 6/0
[Ci fib]
-33.9 -37.8 68 -38 -38 опасность
обморожения
1014.8 1011.4
15 14.12 Ю 1
{3}
20 км 4/0
[Ci fib]
-34.7 -38.7 67 -39 -39 опасность
обморожения
1013.9 1010.5
18 14.12 штиль 0
{3}
20 км 3/0
[Ci fib]
-34.1 -38.1 67 -34 -34 опасность
обморожения
1013.2 1009.8
21 14.12 Ю 1
{1}
20 км ясно -34.0 -37.8 68 -39 -39 опасность
обморожения
1013.3 1009.9 -35.9 10
00 15.12 ЮВ 2
{2}
20 км ясно -33.8 -37.6 68 -42 -42 опасность
обморожения
1012.8 1009.4
03 15.12 СЗ 1
{2}
20 км ясно -35.0 -39.1 66 -40 -40 опасность
обморожения
1012.0 1008.6
06 15.12 штиль 0
{1}
20 км ясно -32.4 -36.0 70 -32 -32 опасность
обморожения
1011.9 1008.5
09 15.12 штиль 0
{4}
20 км ясно -34.3 -38.3 67 -34 -34 опасность
обморожения
1012.1 1008.7 -32.1
12 15.12 штиль 0
{1}
20 км ясно -33.5 -37.4 68 -34 -34 опасность
обморожения
1012.2 1008.8
15 15.12 штиль 0
{1}
20 км ясно -33.4 -37.3 68 -33 -33 опасность
обморожения
1011.5 1008.1
18 15.12 штиль 0
{2}
20 км ясно -33.3 -37.2 68 -33 -33 опасность
обморожения
1011.3 1007.9
21 15.12 З 1
{2}
20 км ясно -33.4 -37.3 68 -38 -38 опасность
обморожения
1011.2 1007.8 -35.0 10
00 16.12 З 1
{2}
20 км ясно -34.4 -38.3 68 -39 -39 опасность
обморожения
1011.0 1007.6 -35.1
03 16.12 штиль 0
{2}
20 км ясно -33.3 -37.2 68 -33 -33 опасность
обморожения
1010.3 1006.9
06 16.12 З 1
{2}
20 км ясно -32.8 -36.5 69 -37 -37 опасность
обморожения
1010.1 1006.7
09 16.12 З 1
{3}
20 км ясно -34.6 -38.4 68 -39 -39 опасность
обморожения
1010.0 1006.6 -32.3
12 16.12 З 1
{2}
20 км ясно -32.2 -35.8 70 -37 -37 опасность
обморожения
1009.4 1006.1
15 16.12 штиль 0
{1}
20 км ясно -32.9 -36.7 69 -33 -33 опасность
обморожения
1008.9 1005.5
18 16.12 штиль 0
{1}
20 км ясно -32.5 -36.2 69 -33 -33 опасность
обморожения
1008.9 1005.6
21 16.12 З 1
{2}
20 км ясно -31.8 -33.5 85 -36 -36 опасность
обморожения
1009.7 1006.4 -35.2 10
00 17.12 ЮЗ 4
{5}
20 км 8/0
[Ac trans Ci fib]
-31.8 -35.5 70 -43 -43 опасность
обморожения
1010.5 1007.2
03 17.12 З 4
{5}
20 км 6/6 300 м
[Sc]
-33.0 -36.8 69 -45 -45 опасность
обморожения
1011.1 1007.7
06 17.12 ЮЗ 6
{7}
20 км позёмок {метель} 4/4 300 м
[Sc]
-34.3 -38.3 67 -49 -49 опасность
обморожения
1012.2 1008.8
09 17.12 З 5
{7}
20 км позёмок {метель} 4/4 300 м
[Sc]
-33.5 -37.2 69 -47 -47 опасность
обморожения
1013.2 1009.8 -31.1
12 17.12 ЮЗ 5
{6}
20 км позёмок {метель} 3/3 300 м
[Sc]
-34.4 -38.4 67 -48 -48 опасность
обморожения
1014.2 1010.8
15 17.12 З 3
{6}
20 км {метель} 3/3 300 м
[Sc]
-34.7 -38.7 67 -45 -45 опасность
обморожения
1014.4 1011.0
18 17.12 З 2
{4}
20 км {метель} 3/0
[Ci fib]
-35.2 -39.3 66 -44 -44 опасность
обморожения
1015.1 1011.7
21 17.12 ЮЗ 2
{4}
20 км ясно -35.8 -39.9 66 -44 -44 опасность
обморожения
1015.4 1012.0 -35.9 10
00 18.12 штиль 0
{2}
20 км ясно -34.8 -38.8 67 -35 -35 опасность
обморожения
1015.5 1012.1 -36.1
03 18.12 штиль 0
{1}
20 км 3/0
[Ac trans]
-34.5 -38.5 67 -35 -35 опасность
обморожения
1015.2 1011.8
06 18.12 Ю 1
{2}
20 км ясно -34.8 -38.9 66 -39 -39 опасность
обморожения
1015.0 1011.6
09 18.12 ЮВ 3
{4}
20 км ясно -35.3 -39.4 66 -46 -46 опасность
обморожения
1015.2 1011.8 -34.0
12 18.12 штиль 0
{4}
20 км ясно -34.3 -38.3 67 -34 -34 опасность
обморожения
1015.0 1011.6

 

Местоположение метеостанции Бухта Амбарчик (Чукотка, Россия): широта 69.62 долгота 162.30 высота над уровнем моря 23 м.

В архиве по умолчанию представлена погода в Бухте Амбарчик за последнюю неделю. Архивные данные за месяц целиком и за предыдущие месяцы, начиная с января 2011 года, Вы можете получить, выбрав интересующий диапазон дат из раскрывающегося списка и нажав кнопку "Ввод!".


*Определитесь, кто Вы:
робот инопланетянин человек

Внимание! Время в таблицах - всемирное. Для получения местного времени необходимо прибавить поправку, которая в Бухте Амбарчик равна 12 ч.

Смотрите также архив погоды в соседних городах и на ближайших метеорологических станциях:

Погода в Черском (Якутия, Россия) (107 км)
Погода в Анюйске (Чукотка, Россия) (145 км)
Погода в Раучуе (Чукотка, Россия) (164 км)
Погода в Константиновской (Чукотка, Россия) (170 км)
Погода в Колымской (Якутия, Россия) (177 км)
Погода на Островном (Чукотка, Россия) (182 км)
Погода на Айон Острове (Чукотка, Россия) (218 км)
Погода в Билибино (Чукотка, Россия) (240 км)
Погода в Певеке (Чукотка, Россия) (305 км)
Погода в Андрюшкино (Якутия, Россия) (309 км)

Пояснения к столбцам:

Ветер - указаны скорость ветра в м/с - средняя за 10 мин, порывы в срок и между сроками (в фигурных скобках) и направление, откуда дует ветер: С - северный, СВ - северо-восточный, В - восточный, ЮВ - юго-восточный, Ю - южный, ЮЗ - юго-западный, З - западный, СЗ - северо-западный.
Видимость - горизонтальная дальность видимости в метрах или километрах. При видимости от 1 до 10 км при отсутствии осадков обычно наблюдается дымка, при ухудшении видимости до 1 км и менее - туман. В сухую погоду видимость может ухудшаться дымом, пылью или мглою.
Явления - указаны атмосферные явления, наблюдавшиеся в срок или в последний час перед сроком; фигурными скобками обозначены явления, наблюдавшиеся между сроками (за 1-3 часа до срока); квадратными скобками обозначены град или гололедные отложения с указанием их диаметра в мм.
Облачность - указаны через наклонную черту общая и нижняя облачность в баллах и высота нижней границы облаков в метрах; квадратными скобками обозначены формы облаков: Ci - перистые, Cs - перисто-слоистые, Cc - перисто-кучевые, Ac - высококучевые, As - высокослоистые, Sc - слоисто-кучевые, Ns - слоисто-дождевые, Cu - кучевые, Cb - кучево-дождевые. Подробнее классификацию облаков см. в Атласе облаков (PDF).
T - Температура воздуха - температура, измеренная на высоте 2 м над землей.
Td - Температура точки росы - температура, при понижении до которой содержащийся в воздухе водяной пар достигнет насыщения.
f - Относительная влажность воздуха - влажноcть воздуха, измеренная на высоте 2 м над землей.
Te - Эффективная температура - температура, которую ощущает одетый по сезону человек в тени. Характеристика душности погоды. При расчете учитывается влияние влажности воздуха и скорости ветра на теплоощущения человека.
Tes - Эффективная температура на солнце - температура, которую ощущает человек, с поправкой на солнечный нагрев. Характеристика знойности погоды. Зависит от высоты солнца над горизонтом, облачности и скорости ветра. Ночью, в пасмурную погоду, а также при ветре 12 м/с и более поправка равна нулю.
P - Атмосферное давление - приведенное к уровню моря атмосферное давление.
Po - Атмосферное давление - измеренное на уровне метеостанции атмосферное давление.
Tmin - Минимальная температура - минимум температуры воздуха на высоте 2 м над землей.
Tmax - Максимальная температура - максимум температуры воздуха на высоте 2 м над землей.
R - Количество осадков - Количество выпавших осадков за период времени, мм. При наведении курсора мыши на число - период времени, за который выпало указанное количество осадков.
R24 - Количество осадков - Количество выпавших осадков за 24 часа, мм.
S - Снежный покров - Высота снежного покрова, см. При наведении курсора мыши на число - состояние снежного покрова и степень покрытия местности в баллах.